Time,TemperatureF,DewpointF,PressureIn,WindDirection,WindDirectionDegrees,WindSpeedMPH,WindSpeedGustMPH,Humidity,HourlyPrecipIn,Conditions,Clouds,dailyrainin,SoftwareType,DateUTC
2013-05-18 00:03:00,51.0,44.0,-100.00,SE,140,3.0,7.0,76,-99.99,,,-99.99,,2013-05-18 04:03:00,
2013-05-18 00:13:00,50.0,43.0,-100.00,SSE,150,3.0,8.0,77,-99.99,,,-99.99,,2013-05-18 04:13:00,
2013-05-18 00:23:00,50.0,43.0,-100.00,SSE,150,3.0,8.0,77,-99.99,,,-99.99,,2013-05-18 04:23:00,
2013-05-18 00:33:00,49.0,43.0,-100.00,SE,135,1.0,3.0,79,-99.99,,,-99.99,,2013-05-18 04:33:00,
2013-05-18 00:43:00,49.0,43.0,-100.00,North,10,0.0,3.0,80,-99.99,,,-99.99,,2013-05-18 04:43:00,
2013-05-18 00:52:00,48.0,42.0,-100.00,South,170,0.0,2.0,80,-99.99,,,-99.99,,2013-05-18 04:52:00,
2013-05-18 01:02:00,48.0,43.0,-100.00,ESE,120,0.0,1.0,81,-99.99,,,-99.99,,2013-05-18 05:02:00,
2013-05-18 01:13:00,48.0,43.0,-100.00,ENE,65,1.0,1.0,83,-99.99,,,-99.99,,2013-05-18 05:13:00,
2013-05-18 01:22:00,47.0,42.0,-100.00,SE,135,0.0,1.0,84,-99.99,,,-99.99,,2013-05-18 05:22:00,
2013-05-18 01:32:00,46.0,42.0,-100.00,SSE,155,2.0,3.0,84,-99.99,,,-99.99,,2013-05-18 05:32:00,
2013-05-18 01:42:00,45.0,42.0,-100.00,SE,145,1.0,3.0,86,-99.99,,,-99.99,,2013-05-18 05:42:00,
2013-05-18 01:52:00,45.0,42.0,-100.00,SSE,155,1.0,2.0,87,-99.99,,,-99.99,,2013-05-18 05:52:00,
2013-05-18 02:02:00,45.0,41.0,-100.00,South,185,2.0,3.0,87,-99.99,,,-99.99,,2013-05-18 06:02:00,
2013-05-18 02:11:00,45.0,41.0,-100.00,SSE,155,2.0,3.0,87,-99.99,,,-99.99,,2013-05-18 06:11:00,
2013-05-18 02:22:00,44.0,41.0,-100.00,SE,135,1.0,3.0,88,-99.99,,,-99.99,,2013-05-18 06:22:00,
2013-05-18 02:32:00,44.0,41.0,-100.00,ESE,120,1.0,3.0,89,-99.99,,,-99.99,,2013-05-18 06:32:00,
2013-05-18 02:42:00,44.0,41.0,-100.00,SE,140,2.0,3.0,90,-99.99,,,-99.99,,2013-05-18 06:42:00,
2013-05-18 02:52:00,44.0,41.0,-100.00,SE,135,1.0,3.0,90,-99.99,,,-99.99,,2013-05-18 06:52:00,
2013-05-18 03:01:00,44.0,41.0,-100.00,ENE,65,1.0,2.0,91,-99.99,,,-99.99,,2013-05-18 07:01:00,
2013-05-18 03:12:00,43.0,41.0,-100.00,ESE,115,1.0,2.0,91,-99.99,,,-99.99,,2013-05-18 07:12:00,
2013-05-18 03:22:00,43.0,41.0,-100.00,East,95,1.0,2.0,92,-99.99,,,-99.99,,2013-05-18 07:22:00,
2013-05-18 03:32:00,43.0,41.0,-100.00,East,85,2.0,2.0,92,-99.99,,,-99.99,,2013-05-18 07:32:00,
2013-05-18 03:42:00,43.0,41.0,-100.00,East,85,2.0,3.0,92,-99.99,,,-99.99,,2013-05-18 07:42:00,
2013-05-18 03:52:00,43.0,41.0,-100.00,ESE,105,1.0,5.0,93,-99.99,,,-99.99,,2013-05-18 07:52:00,
2013-05-18 04:02:00,43.0,41.0,-100.00,East,90,2.0,5.0,93,-99.99,,,-99.99,,2013-05-18 08:02:00,
2013-05-18 04:11:00,43.0,41.0,-100.00,NE,45,1.0,3.0,93,-99.99,,,-99.99,,2013-05-18 08:11:00,
2013-05-18 04:21:00,44.0,42.0,-100.00,ENE,70,2.0,2.0,93,-99.99,,,-99.99,,2013-05-18 08:21:00,
2013-05-18 04:32:00,44.0,42.0,-100.00,ENE,75,2.0,3.0,93,-99.99,,,-99.99,,2013-05-18 08:32:00,
2013-05-18 04:42:00,44.0,42.0,-100.00,ENE,75,2.0,3.0,93,-99.99,,,-99.99,,2013-05-18 08:42:00,
2013-05-18 05:02:00,45.0,43.0,-100.00,East,80,1.0,2.0,93,-99.99,,,-99.99,,2013-05-18 09:02:00,
2013-05-18 05:12:00,45.0,43.0,-100.00,East,85,2.0,3.0,93,-99.99,,,-99.99,,2013-05-18 09:12:00,
2013-05-18 05:22:00,45.0,43.0,-100.00,ESE,105,1.0,2.0,93,-99.99,,,-99.99,,2013-05-18 09:22:00,
2013-05-18 05:33:00,45.0,43.0,-100.00,NE,55,1.0,3.0,92,-99.99,,,-99.99,,2013-05-18 09:33:00,
2013-05-18 05:43:00,46.0,44.0,-100.00,East,100,2.0,5.0,92,-99.99,,,-99.99,,2013-05-18 09:43:00,
2013-05-18 05:53:00,46.0,44.0,-100.00,ESE,120,2.0,6.0,92,-99.99,,,-99.99,,2013-05-18 09:53:00,
2013-05-18 06:03:00,47.0,44.0,-100.00,ESE,115,2.0,6.0,90,-99.99,,,-99.99,,2013-05-18 10:03:00,
2013-05-18 06:12:00,48.0,45.0,-100.00,ESE,115,2.0,7.0,89,-99.99,,,-99.99,,2013-05-18 10:12:00,
2013-05-18 06:23:00,49.0,44.0,-100.00,East,95,3.0,7.0,85,-99.99,,,-99.99,,2013-05-18 10:23:00,
2013-05-18 06:33:00,50.0,44.0,-100.00,East,90,2.0,8.0,80,-99.99,,,-99.99,,2013-05-18 10:33:00,
2013-05-18 06:42:00,50.0,43.0,-100.00,ENE,70,2.0,8.0,78,-99.99,,,-99.99,,2013-05-18 10:42:00,
2013-05-18 06:52:00,50.0,43.0,-100.00,North,0,1.0,5.0,75,-99.99,,,-99.99,,2013-05-18 10:52:00,
2013-05-18 07:03:00,50.0,43.0,-100.00,East,100,3.0,5.0,78,-99.99,,,-99.99,,2013-05-18 11:03:00,
2013-05-18 07:12:00,50.0,43.0,-100.00,ESE,115,3.0,9.0,76,-99.99,,,-99.99,,2013-05-18 11:12:00,
2013-05-18 07:22:00,51.0,42.0,-100.00,East,90,5.0,8.0,73,-99.99,,,-99.99,,2013-05-18 11:22:00,
2013-05-18 07:33:00,51.0,42.0,-100.00,SE,125,3.0,10.0,73,-99.99,,,-99.99,,2013-05-18 11:33:00,
2013-05-18 07:42:00,51.0,42.0,-100.00,ESE,115,3.0,8.0,72,-99.99,,,-99.99,,2013-05-18 11:42:00,
2013-05-18 07:52:00,51.0,42.0,-100.00,East,90,2.0,7.0,72,-99.99,,,-99.99,,2013-05-18 11:52:00,
2013-05-18 08:02:00,51.0,42.0,-100.00,ESE,120,2.0,6.0,71,-99.99,,,-99.99,,2013-05-18 12:02:00,
2013-05-18 08:12:00,51.0,43.0,-100.00,East,100,2.0,6.0,72,-99.99,,,-99.99,,2013-05-18 12:12:00,
2013-05-18 08:23:00,51.0,44.0,-100.00,SE,135,1.0,5.0,75,-99.99,,,-99.99,,2013-05-18 12:23:00,
2013-05-18 08:33:00,51.0,44.0,-100.00,SSE,150,2.0,6.0,79,-99.99,,,-99.99,,2013-05-18 12:33:00,
2013-05-18 08:42:00,52.0,44.0,-100.00,East,90,1.0,5.0,74,-99.99,,,-99.99,,2013-05-18 12:42:00,
2013-05-18 08:52:00,52.0,45.0,-100.00,South,180,1.0,5.0,76,-99.99,,,-99.99,,2013-05-18 12:52:00,
2013-05-18 09:01:00,52.0,45.0,-100.00,ENE,70,2.0,6.0,79,-99.99,,,-99.99,,2013-05-18 13:01:00,
2013-05-18 09:12:00,51.0,45.0,-100.00,ENE,65,3.0,6.0,79,-99.99,,,-99.99,,2013-05-18 13:12:00,
2013-05-18 09:21:00,52.0,45.0,-100.00,ENE,70,2.0,6.0,77,-99.99,,,-99.99,,2013-05-18 13:21:00,
2013-05-18 09:33:00,52.0,45.0,-100.00,ENE,60,2.0,8.0,77,-99.99,,,-99.99,,2013-05-18 13:33:00,
2013-05-18 09:43:00,51.0,44.0,-100.00,ENE,70,2.0,6.0,76,-99.99,,,-99.99,,2013-05-18 13:43:00,
2013-05-18 09:52:00,51.0,44.0,-100.00,ENE,60,5.0,6.0,78,-99.99,,,-99.99,,2013-05-18 13:52:00,
2013-05-18 10:04:00,51.0,44.0,-100.00,ENE,70,5.0,8.0,78,-99.99,,,-99.99,,2013-05-18 14:04:00,
2013-05-18 10:12:00,51.0,45.0,-100.00,East,85,2.0,7.0,82,-99.99,,,-99.99,,2013-05-18 14:12:00,
2013-05-18 10:22:00,51.0,46.0,-100.00,ESE,105,2.0,5.0,84,-99.99,,,-99.99,,2013-05-18 14:22:00,
2013-05-18 10:33:00,51.0,47.0,-100.00,East,90,2.0,5.0,86,-99.99,,,-99.99,,2013-05-18 14:33:00,
2013-05-18 10:42:00,52.0,48.0,-100.00,East,90,1.0,3.0,86,-99.99,,,-99.99,,2013-05-18 14:42:00,
2013-05-18 10:54:00,52.0,48.0,-100.00,East,90,2.0,2.0,85,-99.99,,,-99.99,,2013-05-18 14:54:00,
2013-05-18 11:03:00,52.0,48.0,-100.00,South,170,0.0,2.0,85,-99.99,,,-99.99,,2013-05-18 15:03:00,
2013-05-18 11:13:00,52.0,48.0,-100.00,NE,55,1.0,2.0,85,-99.99,,,-99.99,,2013-05-18 15:13:00,
2013-05-18 11:23:00,52.0,47.0,-100.00,NE,40,2.0,3.0,85,-99.99,,,-99.99,,2013-05-18 15:23:00,
2013-05-18 11:33:00,52.0,48.0,-100.00,ENE,75,2.0,5.0,86,-99.99,,,-99.99,,2013-05-18 15:33:00,
2013-05-18 11:43:00,52.0,48.0,-100.00,ENE,60,5.0,7.0,85,-99.99,,,-99.99,,2013-05-18 15:43:00,
2013-05-18 11:53:00,53.0,48.0,-100.00,NE,55,5.0,8.0,84,-99.99,,,-99.99,,2013-05-18 15:53:00,
2013-05-18 12:03:00,54.0,49.0,-100.00,East,85,3.0,6.0,85,-99.99,,,-99.99,,2013-05-18 16:03:00,
2013-05-18 12:13:00,54.0,49.0,-100.00,East,85,2.0,7.0,84,-99.99,,,-99.99,,2013-05-18 16:13:00,
2013-05-18 12:22:00,55.0,49.0,-100.00,East,90,3.0,7.0,82,-99.99,,,-99.99,,2013-05-18 16:22:00,
2013-05-18 12:33:00,56.0,50.0,-100.00,SE,130,5.0,9.0,80,-99.99,,,-99.99,,2013-05-18 16:33:00,
2013-05-18 12:42:00,57.0,50.0,-100.00,East,80,5.0,9.0,77,-99.99,,,-99.99,,2013-05-18 16:42:00,
2013-05-18 12:52:00,57.0,50.0,-100.00,East,80,5.0,9.0,77,-99.99,,,-99.99,,2013-05-18 16:52:00,
2013-05-18 13:03:00,56.0,50.0,-100.00,NE,50,3.0,6.0,81,-99.99,,,-99.99,,2013-05-18 17:03:00,
2013-05-18 13:12:00,55.0,49.0,-100.00,ENE,65,3.0,7.0,81,-99.99,,,-99.99,,2013-05-18 17:12:00,
2013-05-18 13:22:00,56.0,51.0,-100.00,ENE,60,2.0,5.0,81,-99.99,,,-99.99,,2013-05-18 17:22:00,
2013-05-18 13:33:00,56.0,49.0,-100.00,NE,55,5.0,7.0,78,-99.99,,,-99.99,,2013-05-18 17:33:00,
2013-05-18 13:42:00,56.0,49.0,-100.00,ENE,75,5.0,8.0,76,-99.99,,,-99.99,,2013-05-18 17:42:00,
2013-05-18 13:52:00,59.0,48.0,-100.00,South,180,5.0,9.0,67,-99.99,,,-99.99,,2013-05-18 17:52:00,
2013-05-18 14:01:00,59.0,48.0,-100.00,SSE,155,6.0,13.0,65,-99.99,,,-99.99,,2013-05-18 18:01:00,
2013-05-18 14:12:00,59.0,48.0,-100.00,ESE,115,5.0,12.0,65,-99.99,,,-99.99,,2013-05-18 18:12:00,
2013-05-18 14:22:00,60.0,47.0,-100.00,ENE,70,3.0,8.0,64,-99.99,,,-99.99,,2013-05-18 18:22:00,
2013-05-18 14:32:00,60.0,47.0,-100.00,SE,130,5.0,12.0,63,-99.99,,,-99.99,,2013-05-18 18:32:00,
2013-05-18 14:42:00,59.0,47.0,-100.00,East,90,3.0,13.0,64,-99.99,,,-99.99,,2013-05-18 18:42:00,
2013-05-18 14:52:00,60.0,48.0,-100.00,ESE,115,3.0,9.0,65,-99.99,,,-99.99,,2013-05-18 18:52:00,
2013-05-18 15:02:00,60.0,48.0,-100.00,East,95,5.0,9.0,64,-99.99,,,-99.99,,2013-05-18 19:02:00,
2013-05-18 15:12:00,60.0,47.0,-100.00,SE,145,5.0,13.0,64,-99.99,,,-99.99,,2013-05-18 19:12:00,
2013-05-18 15:22:00,60.0,47.0,-100.00,East,100,2.0,12.0,63,-99.99,,,-99.99,,2013-05-18 19:22:00,
2013-05-18 15:32:00,60.0,47.0,-100.00,ESE,110,3.0,10.0,63,-99.99,,,-99.99,,2013-05-18 19:32:00,
2013-05-18 15:42:00,60.0,47.0,-100.00,East,100,3.0,12.0,62,-99.99,,,-99.99,,2013-05-18 19:42:00,
2013-05-18 15:52:00,61.0,47.0,-100.00,East,80,5.0,12.0,61,-99.99,,,-99.99,,2013-05-18 19:52:00,
2013-05-18 16:02:00,61.0,47.0,-100.00,ESE,115,7.0,18.0,60,-99.99,,,-99.99,,2013-05-18 20:02:00,
2013-05-18 16:11:00,62.0,47.0,-100.00,East,95,6.0,16.0,59,-99.99,,,-99.99,,2013-05-18 20:11:00,
2013-05-18 16:22:00,62.0,47.0,-100.00,East,95,5.0,13.0,57,-99.99,,,-99.99,,2013-05-18 20:22:00,
2013-05-18 16:32:00,63.0,47.0,-100.00,East,100,3.0,10.0,55,-99.99,,,-99.99,,2013-05-18 20:32:00,
2013-05-18 16:42:00,64.0,48.0,-100.00,NE,55,2.0,12.0,55,-99.99,,,-99.99,,2013-05-18 20:42:00,
2013-05-18 16:52:00,65.0,46.0,-100.00,SE,135,5.0,12.0,51,-99.99,,,-99.99,,2013-05-18 20:52:00,
2013-05-18 17:01:00,66.0,46.0,-100.00,ESE,110,7.0,16.0,49,-99.99,,,-99.99,,2013-05-18 21:01:00,
2013-05-18 17:12:00,67.0,47.0,-100.00,ENE,70,8.0,20.0,49,-99.99,,,-99.99,,2013-05-18 21:12:00,
2013-05-18 17:22:00,66.0,47.0,-100.00,ENE,70,5.0,17.0,50,-99.99,,,-99.99,,2013-05-18 21:22:00,
2013-05-18 17:33:00,67.0,48.0,-100.00,SE,130,5.0,13.0,51,-99.99,,,-99.99,,2013-05-18 21:33:00,
2013-05-18 17:43:00,67.0,47.0,-100.00,SE,135,7.0,13.0,49,-99.99,,,-99.99,,2013-05-18 21:43:00,
2013-05-18 17:53:00,67.0,47.0,-100.00,SE,135,8.0,15.0,49,-99.99,,,-99.99,,2013-05-18 21:53:00,
2013-05-18 18:03:00,67.0,47.0,-100.00,East,100,7.0,16.0,49,-99.99,,,-99.99,,2013-05-18 22:03:00,
2013-05-18 18:13:00,68.0,46.0,-100.00,SE,125,9.0,21.0,44,-99.99,,,-99.99,,2013-05-18 22:13:00,
2013-05-18 18:23:00,68.0,45.0,-100.00,SE,135,8.0,16.0,44,-99.99,,,-99.99,,2013-05-18 22:23:00,
2013-05-18 18:33:00,69.0,45.0,-100.00,East,100,5.0,13.0,43,-99.99,,,-99.99,,2013-05-18 22:33:00,
2013-05-18 18:42:00,69.0,46.0,-100.00,East,100,3.0,10.0,44,-99.99,,,-99.99,,2013-05-18 22:42:00,
2013-05-18 18:52:00,68.0,46.0,-100.00,ESE,115,6.0,13.0,45,-99.99,,,-99.99,,2013-05-18 22:52:00,
2013-05-18 19:02:00,68.0,45.0,-100.00,ENE,60,3.0,14.0,44,-99.99,,,-99.99,,2013-05-18 23:02:00,
2013-05-18 19:12:00,68.0,46.0,-100.00,East,85,5.0,12.0,45,-99.99,,,-99.99,,2013-05-18 23:12:00,
2013-05-18 19:22:00,68.0,45.0,-100.00,ESE,120,6.0,13.0,44,-99.99,,,-99.99,,2013-05-18 23:22:00,
2013-05-18 19:32:00,68.0,45.0,-100.00,SE,125,6.0,16.0,44,-99.99,,,-99.99,,2013-05-18 23:32:00,
2013-05-18 19:42:00,69.0,45.0,-100.00,SE,125,6.0,16.0,43,-99.99,,,-99.99,,2013-05-18 23:42:00,
2013-05-18 19:53:00,69.0,45.0,-100.00,SE,135,7.0,12.0,43,-99.99,,,-99.99,,2013-05-18 23:53:00,
2013-05-18 20:02:00,68.0,46.0,-100.00,ESE,110,7.0,18.0,44,-99.99,,,-99.99,,2013-05-19 00:02:00,
2013-05-18 20:12:00,68.0,45.0,-100.00,ESE,115,7.0,15.0,43,-99.99,,,-99.99,,2013-05-19 00:12:00,
2013-05-18 20:22:00,68.0,45.0,-100.00,SE,135,5.0,12.0,44,-99.99,,,-99.99,,2013-05-19 00:22:00,
2013-05-18 20:32:00,68.0,45.0,-100.00,SE,135,5.0,12.0,44,-99.99,,,-99.99,,2013-05-19 00:32:00,
2013-05-18 20:42:00,67.0,46.0,-100.00,East,85,3.0,15.0,47,-99.99,,,-99.99,,2013-05-19 00:42:00,
2013-05-18 20:52:00,67.0,46.0,-100.00,SE,130,5.0,13.0,47,-99.99,,,-99.99,,2013-05-19 00:52:00,
2013-05-18 21:01:00,65.0,47.0,-100.00,ESE,115,5.0,10.0,51,-99.99,,,-99.99,,2013-05-19 01:01:00,
2013-05-18 21:11:00,65.0,46.0,-100.00,SE,135,5.0,9.0,51,-99.99,,,-99.99,,2013-05-19 01:11:00,
2013-05-18 21:22:00,63.0,48.0,-100.00,East,100,2.0,7.0,56,-99.99,,,-99.99,,2013-05-19 01:22:00,
2013-05-18 21:32:00,63.0,46.0,-100.00,SE,125,3.0,8.0,54,-99.99,,,-99.99,,2013-05-19 01:32:00,
2013-05-18 21:42:00,62.0,46.0,-100.00,ESE,105,2.0,8.0,57,-99.99,,,-99.99,,2013-05-19 01:42:00,
2013-05-18 21:52:00,61.0,49.0,-100.00,ESE,115,2.0,7.0,66,-99.99,,,-99.99,,2013-05-19 01:52:00,
2013-05-18 22:02:00,61.0,48.0,-100.00,ESE,110,2.0,7.0,63,-99.99,,,-99.99,,2013-05-19 02:02:00,
2013-05-18 22:11:00,61.0,47.0,-100.00,SE,125,2.0,8.0,60,-99.99,,,-99.99,,2013-05-19 02:11:00,
2013-05-18 22:22:00,61.0,48.0,-100.00,East,90,2.0,7.0,63,-99.99,,,-99.99,,2013-05-19 02:22:00,
2013-05-18 22:32:00,61.0,47.0,-100.00,East,95,2.0,6.0,59,-99.99,,,-99.99,,2013-05-19 02:32:00,
2013-05-18 22:42:00,61.0,45.0,-100.00,SE,130,5.0,9.0,56,-99.99,,,-99.99,,2013-05-19 02:42:00,
2013-05-18 22:52:00,60.0,49.0,-100.00,SE,125,3.0,7.0,65,-99.99,,,-99.99,,2013-05-19 02:52:00,
2013-05-18 23:01:00,61.0,46.0,-100.00,SE,135,3.0,10.0,57,-99.99,,,-99.99,,2013-05-19 03:01:00,
2013-05-18 23:11:00,61.0,45.0,-100.00,SSE,150,5.0,13.0,54,-99.99,,,-99.99,,2013-05-19 03:11:00,
2013-05-18 23:22:00,61.0,47.0,-100.00,SE,135,2.0,9.0,59,-99.99,,,-99.99,,2013-05-19 03:22:00,
2013-05-18 23:53:00,60.0,45.0,-100.00,SE,145,2.0,7.0,57,-99.99,,,-99.99,,2013-05-19 03:53:00,